Weather History for LHBC - August, 2014

Change the Weather History Date:

Wednesday, August 13, 2014

  Actual Average Record
Temperature  
Mean Temperature 78 °F -  
Max Temperature 91 °F - - ()
Min Temperature 65 °F - - ()
Cooling Degree Days 13    
Growing Degree Days 28 (Base 50)    
Moisture  
Dew Point 69 °F    
Average Humidity 70    
Maximum Humidity 96    
Minimum Humidity 40    
Precipitation  
Precipitation 0.00 in - - ()
Sea Level Pressure  
Sea Level Pressure 29.84 in    
Wind  
Wind Speed 4 mph ()    
Max Wind Speed 9 mph    
Max Gust Speed -    
Visibility 10.3 miles    
Events Rain    
T = Trace of Precipitation, MM = Missing Value Source: Averaged Metar Reports

Daily Weather History Graph

Daily Weather History Graph

Search for Another Location

Airport or City:

Trip Planner

Search our weather history database for the weather conditions in past years. The results will help you decide how hot, cold, wet, or windy it might be!

Date:

Astronomy

Aug. 13, 2014 Rise Set
Actual Time 5:30 AM CEST 7:49 PM CEST
Civil Twilight 4:56 AM CEST 8:22 PM CEST
Nautical Twilight 4:15 AM CEST 9:04 PM CEST
Astronomical Twilight 3:27 AM CEST 9:50 PM CEST
Moon 9:06 PM CEST (8/13) 8:51 AM CEST (8/13)
Length of Visible Light 15h 25m
Length of Day
14h 18m
Waning Gibbous, 90% of the Moon is Illuminated
Aug 13
Waning Gibbous
Aug 17
Last Quarter
Aug 25
New
Sep 2
First Quarter
Sep 9
Full

Hourly Weather History & Observations

Time (CEST) Temp. Heat Index Dew Point Humidity Pressure Visibility Wind Dir Wind Speed Gust Speed Precip Events Conditions
12:00 AM 71 °F - 67 °F 82% 29.92 in - ENE 6.7 mph - -  
1:00 AM 70 °F - 66 °F 84% 29.91 in - ENE 6.7 mph - -  
2:00 AM 68 °F - 65 °F 89% 29.91 in - Calm Calm - -  
3:00 AM 67 °F - 65 °F 92% 29.91 in - NNE 4.5 mph - -  
4:00 AM 67 °F - 65 °F 93% 29.90 in - Calm Calm - -  
4:45 AM 66.2 °F - 64.4 °F 94% 29.92 in - Calm Calm - N/A   Clear
5:00 AM 66 °F - 65 °F 95% 29.90 in 7 mi Calm Calm - -   Partly Cloudy
5:45 AM 66.2 °F - 64.4 °F 94% 29.89 in - NNE 1.2 mph - N/A   Clear
6:00 AM 66 °F - 65 °F 96% 29.89 in 7 mi NNE 2.2 mph - -   Partly Cloudy
6:45 AM 68.0 °F - 66.2 °F 94% 29.89 in 6.2 mi East 3.5 mph - N/A   Mostly Cloudy
7:00 AM 68 °F - 67 °F 94% 29.88 in 7 mi East 4.5 mph - - Rain Light Rain Showers
7:45 AM 71.6 °F - 68.0 °F 88% 29.89 in 6.2 mi NE 3.5 mph - N/A   Mostly Cloudy
8:00 AM 72 °F - 69 °F 85% 29.88 in 11 mi NE 2.2 mph - -   Partly Cloudy
9:00 AM 76 °F - 70 °F 76% 29.88 in - East 2.2 mph - -  
10:00 AM 80 °F - 72 °F 69% 29.86 in - East 4.5 mph - -  
10:45 AM 82.4 °F 87.2 °F 71.6 °F 70% 29.86 in - SE 6.9 mph - N/A   Clear
11:00 AM 83 °F - 72 °F 62% 29.86 in 14 mi SE 6.7 mph - -   Partly Cloudy
12:00 PM 86 °F - 74 °F 61% 29.84 in - SSE 6.7 mph - -  
1:00 PM 88 °F - 74 °F 55% 29.83 in 16 mi South 6.7 mph - -   Partly Cloudy
1:45 PM 89.6 °F 98.2 °F 73.4 °F 59% 29.83 in 6.2 mi South 9.2 mph - N/A   Mostly Cloudy
2:00 PM 89 °F - 73 °F 50% 29.82 in 17 mi South 8.9 mph - -   Partly Cloudy
2:45 PM 89.6 °F 98.2 °F 73.4 °F 59% 29.83 in 6.2 mi South 8.1 mph - N/A   Scattered Clouds
3:00 PM 90 °F - 72 °F 47% 29.80 in 17 mi South 8.9 mph - -   Partly Cloudy
4:00 PM 91 °F - 71 °F 42% 29.79 in - South 6.7 mph - -  
4:45 PM 91.4 °F 96.8 °F 69.8 °F 49% 29.80 in 6.2 mi South 9.2 mph - N/A   Partly Cloudy
5:00 PM 91 °F - 69 °F 40% 29.78 in 16 mi South 8.9 mph - -   Partly Cloudy
6:00 PM 90 °F - 71 °F 44% 29.76 in - South 6.7 mph - -  
7:00 PM 88 °F - 67 °F 41% 29.76 in - South 6.7 mph - -  
7:45 PM 84.2 °F 87.3 °F 68.0 °F 58% 29.77 in - SSE 3.5 mph - N/A   Clear
8:00 PM 84 °F - 67 °F 48% 29.75 in 12 mi SSE 4.5 mph - -   Partly Cloudy
9:00 PM 81 °F - 68 °F 55% 29.77 in - Calm Calm - -  
10:00 PM 78 °F - 68 °F 65% 29.77 in - SSE 4.5 mph - -  
11:00 PM 77 °F - 69 °F 69% 29.76 in - SSE 4.5 mph - -